TimeEST,TemperatureF,Dew PointF,Humidity,Sea Level PressureIn,VisibilityMPH,Wind Direction,Wind SpeedMPH,Gust SpeedMPH,PrecipitationIn,Events,Conditions,WindDirDegrees,DateUTC
12:49 AM,46.4,41.0,81,29.45,10.0,West,11.5,-,N/A,,Overcast,280,2012-12-19 05:49:00
12:53 AM,46.0,41.0,83,29.45,10.0,West,11.5,-,N/A,,Overcast,280,2012-12-19 05:53:00
1:53 AM,44.1,37.0,76,29.46,10.0,WNW,12.7,24.2,N/A,,Mostly Cloudy,290,2012-12-19 06:53:00
2:02 AM,42.8,37.4,81,29.46,10.0,WNW,9.2,-,N/A,,Scattered Clouds,290,2012-12-19 07:02:00
2:53 AM,42.1,34.0,73,29.47,10.0,WNW,10.4,20.7,N/A,,Clear,290,2012-12-19 07:53:00
3:53 AM,42.1,33.1,70,29.47,10.0,West,11.5,-,N/A,,Partly Cloudy,280,2012-12-19 08:53:00
4:53 AM,42.1,33.1,70,29.49,10.0,WNW,10.4,21.9,N/A,,Overcast,290,2012-12-19 09:53:00
5:53 AM,41.0,30.9,67,29.50,10.0,WNW,15.0,23.0,N/A,,Overcast,290,2012-12-19 10:53:00
6:53 AM,41.0,30.9,67,29.52,10.0,WNW,10.4,20.7,N/A,,Overcast,290,2012-12-19 11:53:00
7:53 AM,42.1,30.9,65,29.53,10.0,WNW,13.8,21.9,N/A,,Overcast,300,2012-12-19 12:53:00
8:53 AM,42.1,30.9,65,29.55,10.0,WNW,15.0,23.0,N/A,,Overcast,300,2012-12-19 13:53:00
9:53 AM,44.1,30.9,60,29.56,10.0,NW,18.4,36.8,N/A,,Mostly Cloudy,310,2012-12-19 14:53:00
10:53 AM,45.0,30.9,58,29.57,10.0,NW,12.7,32.2,N/A,,Mostly Cloudy,320,2012-12-19 15:53:00
11:53 AM,46.0,30.9,56,29.59,10.0,NW,13.8,25.3,N/A,,Mostly Cloudy,320,2012-12-19 16:53:00
12:53 PM,48.9,32.0,52,29.61,10.0,WNW,18.4,27.6,N/A,,Mostly Cloudy,300,2012-12-19 17:53:00
1:53 PM,46.9,30.9,54,29.64,10.0,NW,10.4,23.0,N/A,,Mostly Cloudy,320,2012-12-19 18:53:00
2:53 PM,46.0,30.9,56,29.68,10.0,NNW,10.4,21.9,N/A,,Mostly Cloudy,330,2012-12-19 19:53:00
3:53 PM,45.0,30.0,56,29.72,10.0,North,10.4,20.7,N/A,,Overcast,350,2012-12-19 20:53:00
4:53 PM,44.1,30.0,58,29.77,10.0,NNW,10.4,20.7,N/A,,Overcast,330,2012-12-19 21:53:00
5:53 PM,42.1,28.9,60,29.82,10.0,NNW,6.9,21.9,N/A,,Scattered Clouds,330,2012-12-19 22:53:00
6:53 PM,42.1,30.0,62,29.87,10.0,NW,6.9,-,N/A,,Mostly Cloudy,310,2012-12-19 23:53:00
7:53 PM,41.0,30.0,65,29.91,10.0,Variable,4.6,-,N/A,,Overcast,0,2012-12-20 00:53:00
8:53 PM,39.9,28.9,65,29.94,10.0,Variable,6.9,-,N/A,,Mostly Cloudy,0,2012-12-20 01:53:00
9:53 PM,39.0,28.9,67,29.97,10.0,NW,6.9,-,N/A,,Mostly Cloudy,310,2012-12-20 02:53:00
10:53 PM,39.0,28.0,65,30.00,10.0,NW,9.2,-,N/A,,Overcast,320,2012-12-20 03:53:00
11:53 PM,37.0,28.0,70,30.01,10.0,NW,4.6,-,N/A,,Mostly Cloudy,320,2012-12-20 04:53:00